Location: Baia de Cri?
(46.1667°N, 22.7167°E)
Time: 22:14:59
(UTC+00:00)

Meteor 2-10 Rocket - Pass Details

Date: 15 January 2026
Orbit: 733 x 881 km, 81.2° (Epoch: 10 February)

Event Time Altitude Azimuth Distance (km) Brightness Sun altitude
Rises 03:43:20 0° 175° (S) 3,162 6.8 -24.4°
Reaches altitude 10° 03:45:40 10° 170° (S) 2,255 6.1 -24.0°
Maximum altitude 03:50:34 53° 95° (E) 938 4.2 -23.2°
Drops below altitude 10° 03:55:40 10° 20° (NNE) 2,347 6.1 -22.3°
Sets 03:58:08 0° 16° (NNE) 3,303 6.9 -21.9°
